TimeAKDT,TemperatureF,Dew PointF,Humidity,Sea Level PressureIn,VisibilityMPH,Wind Direction,Wind SpeedMPH,Gust SpeedMPH,PrecipitationIn,Events,Conditions,WindDirDegrees,DateUTC
12:16 AM,33.8,28.4,81,30.38,10.0,WSW,9.2,-,N/A,,Overcast,250,2012-10-27 08:16:00
12:36 AM,32.0,30.2,93,30.38,8.0,West,9.2,-,N/A,,Overcast,270,2012-10-27 08:36:00
12:56 AM,33.8,30.2,87,30.38,8.0,WSW,8.1,-,N/A,,Overcast,250,2012-10-27 08:56:00
1:16 AM,30.2,28.4,93,30.38,10.0,WSW,9.2,-,N/A,,Overcast,240,2012-10-27 09:16:00
1:36 AM,33.8,30.2,87,30.38,10.0,West,5.8,-,N/A,,Overcast,260,2012-10-27 09:36:00
1:56 AM,30.2,28.4,93,30.39,8.0,WNW,6.9,-,N/A,,Overcast,290,2012-10-27 09:56:00
2:16 AM,32.0,28.4,87,30.39,10.0,WNW,8.1,-,N/A,,Overcast,300,2012-10-27 10:16:00
2:36 AM,30.2,28.4,93,30.39,7.0,West,6.9,-,N/A,,Overcast,270,2012-10-27 10:36:00
2:56 AM,30.2,28.4,93,30.38,8.0,WSW,5.8,-,N/A,,Overcast,240,2012-10-27 10:56:00
3:16 AM,32.0,28.4,87,30.38,8.0,Calm,Calm,-,N/A,,Overcast,0,2012-10-27 11:16:00
3:36 AM,30.2,28.4,93,30.38,3.0,WNW,4.6,-,N/A,,Overcast,290,2012-10-27 11:36:00
3:56 AM,30.2,28.4,93,30.38,3.0,West,3.5,-,N/A,,Overcast,260,2012-10-27 11:56:00
4:16 AM,30.2,28.4,93,30.38,1.5,Calm,Calm,-,N/A,,Overcast,0,2012-10-27 12:16:00
4:36 AM,30.2,28.4,93,30.37,1.2,NW,3.5,-,N/A,,Overcast,310,2012-10-27 12:36:00
4:56 AM,30.2,28.4,93,30.37,0.8,West,5.8,-,N/A,,Overcast,270,2012-10-27 12:56:00
5:16 AM,30.2,28.4,93,30.37,0.8,WSW,4.6,-,N/A,,Overcast,250,2012-10-27 13:16:00
5:36 AM,30.2,26.6,86,30.37,0.8,West,4.6,-,N/A,,Overcast,280,2012-10-27 13:36:00
5:56 AM,30.2,26.6,86,30.37,0.5,West,5.8,-,N/A,,Overcast,280,2012-10-27 13:56:00
6:16 AM,28.4,26.6,93,30.36,0.8,SW,3.5,-,N/A,,Overcast,230,2012-10-27 14:16:00
6:56 AM,28.4,26.6,93,30.36,0.5,WSW,4.6,-,N/A,,Overcast,250,2012-10-27 14:56:00
7:16 AM,30.2,28.4,93,30.35,0.5,WNW,4.6,-,N/A,,Overcast,300,2012-10-27 15:16:00
7:36 AM,30.2,26.6,86,30.36,0.5,West,4.6,-,N/A,,Overcast,280,2012-10-27 15:36:00
7:56 AM,28.4,26.6,93,30.36,0.5,Calm,Calm,-,N/A,,Overcast,0,2012-10-27 15:56:00
8:16 AM,30.2,26.6,86,30.36,0.5,Calm,Calm,-,N/A,,Overcast,0,2012-10-27 16:16:00
8:36 AM,28.4,26.6,93,30.36,0.5,Calm,Calm,-,N/A,,Overcast,0,2012-10-27 16:36:00
8:56 AM,30.2,26.6,86,30.36,0.5,Calm,Calm,-,N/A,,Overcast,0,2012-10-27 16:56:00
9:16 AM,30.2,28.4,93,30.36,0.8,SSE,4.6,-,N/A,,Overcast,160,2012-10-27 17:16:00
9:36 AM,30.2,26.6,86,30.36,0.8,SE,4.6,-,N/A,,Overcast,140,2012-10-27 17:36:00
9:56 AM,28.4,26.6,93,30.36,1.0,SE,5.8,-,N/A,,Overcast,130,2012-10-27 17:56:00
10:16 AM,30.2,26.6,86,30.36,1.5,ESE,5.8,-,N/A,,Overcast,120,2012-10-27 18:16:00
10:36 AM,28.4,26.6,93,30.36,2.0,ENE,9.2,-,N/A,,Overcast,70,2012-10-27 18:36:00
10:56 AM,30.2,26.6,86,30.36,2.5,ENE,9.2,-,N/A,,Overcast,70,2012-10-27 18:56:00
11:16 AM,28.4,26.6,93,30.36,6.0,East,8.1,-,N/A,,Overcast,80,2012-10-27 19:16:00
11:36 AM,30.2,26.6,86,30.36,5.0,East,8.1,-,N/A,,Overcast,90,2012-10-27 19:36:00
11:56 AM,28.4,26.6,93,30.36,9.0,East,8.1,-,N/A,,Overcast,100,2012-10-27 19:56:00
12:16 PM,28.4,26.6,93,30.36,10.0,East,6.9,-,N/A,,Overcast,100,2012-10-27 20:16:00
12:36 PM,30.2,26.6,86,30.37,10.0,East,8.1,-,N/A,,Overcast,80,2012-10-27 20:36:00
12:56 PM,28.4,26.6,93,30.37,7.0,East,10.4,-,N/A,,Overcast,90,2012-10-27 20:56:00
1:16 PM,30.2,26.6,86,30.37,10.0,ENE,10.4,-,N/A,,Overcast,60,2012-10-27 21:16:00
1:36 PM,30.2,28.4,93,30.38,10.0,NE,10.4,-,N/A,,Overcast,50,2012-10-27 21:36:00
1:56 PM,30.2,26.6,86,30.38,10.0,East,9.2,-,N/A,,Overcast,80,2012-10-27 21:56:00
2:16 PM,30.2,28.4,93,30.38,10.0,East,10.4,-,N/A,,Overcast,90,2012-10-27 22:16:00
2:36 PM,30.2,26.6,86,30.38,10.0,ENE,9.2,-,N/A,,Overcast,60,2012-10-27 22:36:00
2:56 PM,30.2,26.6,86,30.38,10.0,East,8.1,-,N/A,,Overcast,80,2012-10-27 22:56:00
3:16 PM,30.2,26.6,86,30.38,10.0,East,5.8,-,N/A,,Overcast,90,2012-10-27 23:16:00
3:36 PM,30.2,26.6,86,30.37,10.0,ENE,10.4,-,N/A,,Overcast,60,2012-10-27 23:36:00
3:56 PM,30.2,26.6,86,30.37,6.0,ENE,11.5,-,N/A,,Overcast,60,2012-10-27 23:56:00
4:16 PM,28.4,26.6,93,30.37,7.0,East,10.4,-,N/A,,Overcast,80,2012-10-28 00:16:00
4:36 PM,30.2,26.6,86,30.37,10.0,ENE,9.2,-,N/A,,Overcast,60,2012-10-28 00:36:00
4:56 PM,30.2,26.6,86,30.36,10.0,ENE,8.1,-,N/A,,Overcast,60,2012-10-28 00:56:00
5:16 PM,30.2,26.6,86,30.36,10.0,ENE,9.2,-,N/A,,Overcast,70,2012-10-28 01:16:00
5:36 PM,30.2,26.6,86,30.36,10.0,ENE,9.2,-,N/A,,Overcast,70,2012-10-28 01:36:00
5:56 PM,30.2,26.6,86,30.36,10.0,East,8.1,-,N/A,,Overcast,80,2012-10-28 01:56:00
6:16 PM,30.2,26.6,86,30.36,10.0,NE,6.9,-,N/A,,Overcast,50,2012-10-28 02:16:00
6:36 PM,30.2,26.6,86,30.36,10.0,NE,8.1,-,N/A,,Overcast,50,2012-10-28 02:36:00
6:56 PM,30.2,26.6,86,30.36,10.0,NE,8.1,-,N/A,,Overcast,50,2012-10-28 02:56:00
7:16 PM,28.4,26.6,93,30.36,10.0,East,6.9,-,N/A,,Overcast,80,2012-10-28 03:16:00
7:36 PM,28.4,26.6,93,30.36,10.0,East,5.8,-,N/A,,Overcast,100,2012-10-28 03:36:00
7:56 PM,30.2,26.6,86,30.36,10.0,NE,6.9,-,N/A,,Overcast,50,2012-10-28 03:56:00
8:16 PM,30.2,26.6,86,30.36,10.0,East,5.8,-,N/A,,Overcast,80,2012-10-28 04:16:00
8:36 PM,30.2,26.6,86,30.36,10.0,East,9.2,-,N/A,,Overcast,90,2012-10-28 04:36:00
8:56 PM,30.2,26.6,86,30.36,7.0,NE,9.2,-,N/A,,Overcast,50,2012-10-28 04:56:00
9:16 PM,30.2,28.4,93,30.36,5.0,ENE,9.2,-,N/A,,Overcast,70,2012-10-28 05:16:00
9:36 PM,30.2,26.6,86,30.36,10.0,ESE,5.8,-,N/A,,Overcast,110,2012-10-28 05:36:00
9:56 PM,30.2,26.6,86,30.36,10.0,ESE,5.8,-,N/A,,Overcast,110,2012-10-28 05:56:00
10:16 PM,30.2,28.4,93,30.36,10.0,ESE,5.8,-,N/A,,Overcast,110,2012-10-28 06:16:00
10:36 PM,32.0,28.4,87,30.36,10.0,ESE,6.9,-,N/A,,Overcast,110,2012-10-28 06:36:00
10:56 PM,32.0,28.4,87,30.36,10.0,East,4.6,-,N/A,,Overcast,80,2012-10-28 06:56:00
11:16 PM,32.0,28.4,87,30.36,10.0,ENE,6.9,-,N/A,,Overcast,60,2012-10-28 07:16:00
11:36 PM,32.0,28.4,87,30.36,4.0,NE,6.9,-,N/A,,Overcast,50,2012-10-28 07:36:00
11:56 PM,32.0,28.4,87,30.36,1.5,ENE,8.1,-,N/A,,Overcast,70,2012-10-28 07:56:00